Погода в Штефан-Водэ

Молдова     46°30′57″N   29°39′37″E
темп.,
°C
ветер,
м/с
пор.,
м/с
влажн.,
%
обл.,
%
осадки,
мм/ч
давл.,
гПа
погр.,
м
11 апреля, вс
вс1100:00+5юз34550 0.0 102774
03:00+4зсз11490 0.0 102710
06:00+4ссв22510 0.0 102711
09:00+8ссв23450 0.0 1028264
12:00+13ссв44330 0.0 10271626
15:00+15ссв44305 0.0 10261914
18:00+14ссв44320 0.0 10251686
21:00+10с33460 0.0 102621
12 апреля, пн
пн1200:00+9с33536 0.0 102523
03:00+7ссз336013 0.0 102435
06:00+6ссз34635 0.0 102353
09:00+10с465077 0.0 1023309
12:00+15с4437100 0.0 10221081
15:00+17с4434100 0.0 10201574
18:00+17ссв3436100 0.0 10201646
21:00+9юв4768100 0.0 1021182
13 апреля, вт
вт1300:00+8ю2372100 0.0 102175
03:00+8зюз1172100 0.0 102010
06:00+7св1172100 0.0 102010
09:00+9в1267100 0.0 1020120
12:00+10юв2265100 0.0 1019287
15:00+12ююв2263100 0.0 1019540
18:00+10юв4475100 0.0 1018343
21:00+9юв4684100 0.0 1018294
14 апреля, ср
ср1400:00+8ююв4987100 0.2 1017414
03:00+8ююв4994100 0.6 1016423
06:00+8юв3895100 0.7 1016341
09:00+9юв577899 1.1 1016549
12:00+12юв6859100 0.0 10151212
15:00+13юв7861100 0.0 10141334
18:00+9юв6879100 0.3 1014642
21:00+8в4893100 2.1 1013519
15 апреля, чт
чт1500:00+8вюв3796100 0.5 1013465
03:00+8вюв3496100 0.6 1012260
06:00+8в2496100 0.0 1012246
09:00+9св2394100 0.3 1012300
12:00+9с3393100 1.2 1013289
15:00+9ссз5794100 2.4 1013522
18:00+7сз61092100 0.3 1014426
21:00+7сз61091100 0.7 1014422